Regional Weather Roundup
Issued by NWS

Home | Current Version | Previous Version | Text Only | Print | Product List | Glossary Off
Versions: 1 2 3 4 5 6 7 8 9 10 11 12 13 14 15 16 17 18 19 20 21 22 23 24 25 26 27 28 29 30 31 32 33 34 35 36 37 38 39 40 41 42 43 44 45 46 47 48 49 50

000
ASUS45 KBOU 210407
RWRCO

WEATHER ROUNDUP FOR COLORADO
NATIONAL WEATHER SERVICE DENVER/BOULDER CO
1000 PM MDT MON APR 20 2015

NOTE: "FAIR" INDICATES FEW OR NO CLOUDS BELOW 12000 FEET WITH NO
SIGNIFICANT WEATHER AND/OR OBSTRUCTIONS TO VISIBILITY.

COZ001>005-013-030-031-210500-
...NORTHWEST COLORADO...

CITY           SKY/WX    TMP DP  RH WIND       PRES   REMARKS
CRAIG          CLEAR     36  32  85 CALM      29.96R
HAYDEN         CLEAR     39  30  70 E9        29.97S
MEEKER         PTCLDY    44  33  65 NE10      29.97R
MOUNT WERNER   NOT AVBL
STEAMBOAT SPGS PTCLDY    38  29  71 E7        29.99S
WALDEN         CLEAR     30  23  74 SE6       30.01R WCI  24
$$

COZ006>008-011-210500-
...WEST CENTRAL VALLEYS...

CITY           SKY/WX    TMP DP  RH WIND       PRES   REMARKS
GRAND JUNCTION CLEAR     50  39  66 E6        29.89S
MONTROSE       PTCLDY    48  37  65 SE8       29.97R
EAGLE          PTCLDY    39  36  87 S5        30.06R
RIFLE          MOCLDY    48  33  56 E9        29.96R
DELTA          PTCLDY    54  32  42 NE7       29.95R
NUCLA          PTCLDY    50  30  46 E10       30.00R
$$

COZ017>023-064>068-210500-
...SOUTHWEST COLORADO...

CITY           SKY/WX    TMP DP  RH WIND       PRES   REMARKS
DURANGO        CLEAR     44  22  41 N7        29.98R
CORTEZ         PTCLDY    41  28  60 NE7       29.96R
PAGOSA SPRINGS CLEAR     37  21  52 CALM      30.03R
TELLURIDE      PTCLDY    40  20  46 SE5       30.10R
WOLF CREEK PAS CLEAR     28  12  50 W8        30.20R WCI  20
$$

COZ009-010-012-014-032>034-037-058>063-210500-
...CENTRAL COLORADO...

CITY           SKY/WX    TMP DP  RH WIND       PRES   REMARKS
ASPEN          MOCLDY    36  31  82 S6        30.05R
BUENA VISTA    PTCLDY    34  32  91 CALM      30.07S
COPPER MTN     NOT AVBL
BERTHOUD PASS  FAIR      18  10  73 NW25G31   30.09S HAZE    WCI  -1
COTTONWOOD PAS PTCLDY    32  27  80 N6        30.10R WCI  26
GUNNISON       CLEAR     37  27  65 N5        30.07R
KREMMLING      CLEAR     36  30  80 CALM      30.04S
LEADVILLE      MOCLDY    25  23  92 SE3       30.09S
MONARCH PASS   PTCLDY    25  18  74 MISG      30.24S
SALIDA         PTCLDY    40  32  71 NW6       30.13S
SUNLIGHT       PTCLDY    32  28  86 CALM      30.15S
WILKERSON PASS MOCLDY    25  21  86 NW8G17    30.13R WCI  16
$$

COZ069>075-210500-
...SAN LUIS VALLEY/SANGRE DE CRISTO MOUNTAINS...

CITY           SKY/WX    TMP DP  RH WIND       PRES   REMARKS
ALAMOSA        PTCLDY    42  23  46 N3        30.01R
LA VETA PASS   PTCLDY    32  21  64 W6        30.10R WCI  26
SAGUACHE       PTCLDY    37  28  70 W10       30.05R
$$

COZ035-036-038>040-210500-
...NORTHERN COLORADO FRONT RANGE...

CITY           SKY/WX    TMP DP  RH WIND       PRES   REMARKS
DENVER INTL AP PTCLDY    42  35  76 S10       29.96S
DMNS CITY PARK   N/A     44  36  74 SW6       29.97S
AURORA         PTCLDY    40  37  87 S9        29.98S
FRONT RANGE AP NOT AVBL
ERIE MUNI ARPT PTCLDY    42  37  82 S6        29.96S
BOULDER MUN AP PTCLDY    45  36  70 SW3       29.95S
CENTENNIAL     PTCLDY    38  34  85 S8        29.98S
BROOMFIELD     PTCLDY    41  37  87 VRB6      29.97S
FORT COLLINS   CLEAR     45  34  65 CALM      29.97R
LONGMONT       CLEAR     40  35  83 CALM      29.97S
$$

COZ041-046-047-076>085-087-088-210500-
...PIKES PEAK/PALMER DIVIDE AND SOUTHERN FOOTHILLS...

CITY           SKY/WX    TMP DP  RH WIND       PRES   REMARKS
COLO. SPRINGS  MOCLDY    42  35  76 W6        30.02R
A. F. ACADEMY  PTCLDY    39  33  78 CALM      30.01S
ELLICOTT       MOCLDY   N/A N/A N/A E9        30.00R
FALCON         MOCLDY    38  33  81 CALM      30.03S
FORT CARSON    MOCLDY    45  34  65 NE5       30.00F
LIMON          PTCLDY    37  30  75 CALM      29.98S
MONUMENT HILL  PTCLDY    32  30  93 S6        30.01S WCI  26
TRINIDAD       PTCLDY    45  36  70 NE7       29.98R
$$

COZ042>045-048>051-090-091-210500-
...NORTHEAST COLORADO...

CITY           SKY/WX    TMP DP  RH WIND       PRES   REMARKS
GREELEY ARPT   CLEAR     45  28  53 CALM      29.96R
AKRON          CLEAR     38  27  64 S8        29.93S
BURLINGTON     MOCLDY    40  33  76 CALM      29.96R
WRAY           CLEAR     41  29  62 SW5       29.92S
STERLING       CLEAR     36  30  80 SW5       29.91R
HOLYOKE        CLEAR     37  30  75 W6        29.91S
FORT MORGAN    CLEAR     42  25  51 N8        29.95R
$$

COZ086-089-092>099-210500-
...SOUTHEAST COLORADO...

CITY           SKY/WX    TMP DP  RH WIND       PRES   REMARKS
PUEBLO         CLOUDY    52  37  56 N8        29.99R
LA JUNTA       MOCLDY    51  36  56 NE5       29.96R
LAMAR          CLOUDY    50  37  61 E7        29.93R
SPRINGFIELD      N/A     44  39  82 SW5       29.96R
$$



USA.gov is the U.S. government's official web portal to all federal, state and local government web resources and services.